Location: Proctor
(47.8934°N, 114.3048°W)
Time: 02:07:51
(UTC+00:00)

Vanguard 1 Rocket - All Passes

Search period start: 13 June 2024 00:00
Search period end: 23 June 2024 00:00
Orbit: 649 x 4221 km, 34.3° (Epoch: 11 June)

Date Brightness Start Highest point End Pass type
(mag) Time Alt. Az. Time Alt. Az. Time Alt. Az.
13 Jun - 08:54:58 10° S 09:08:59 25° SE 09:26:46 10° E visible
13 Jun - 11:16:17 10° SW 11:36:30 49° SSE 12:00:06 10° E daylight
13 Jun - 13:43:10 10° WSW 14:07:14 58° S 14:28:56 10° ESE daylight
13 Jun - 16:13:54 10° W 16:37:06 44° SSW 16:54:02 10° SE daylight
13 Jun - 18:49:55 10° W 19:02:53 19° SW 19:12:56 10° SSW daylight
14 Jun - 07:48:07 10° SSE 07:56:36 15° ESE 08:06:39 10° E visible
14 Jun - 10:04:41 10° SSW 10:22:07 40° SE 10:44:36 10° E visible
14 Jun - 12:29:26 10° WSW 12:51:46 57° S 13:15:16 10° ESE daylight
14 Jun - 14:58:22 10° W 15:22:38 52° SSW 15:42:17 10° SE daylight
14 Jun - 17:31:15 10° W 17:50:27 30° SW 18:04:34 10° S daylight
15 Jun - 08:54:22 10° S 09:08:41 30° SE 09:27:54 10° E visible
15 Jun - 11:16:39 10° SW 11:36:33 52° SSE 12:00:43 10° E daylight
15 Jun - 13:43:44 10° WSW 14:07:25 57° S 14:29:33 10° ESE daylight
15 Jun - 16:14:31 10° W 16:37:02 40° SW 16:54:15 10° SSE daylight
15 Jun - 18:52:23 10° W 19:02:30 15° WSW 19:10:58 10° SSW daylight
16 Jun - 07:46:03 10° SSE 07:56:12 18° SE 08:09:12 10° E visible
16 Jun - 10:04:51 10° SW 10:22:02 44° SSE 10:45:14 10° E visible
16 Jun - 12:30:01 10° WSW 12:51:56 58° S 13:15:52 10° ESE daylight
16 Jun - 14:58:58 10° W 15:22:41 49° SSW 15:42:41 10° SE daylight
16 Jun - 17:32:20 10° W 17:50:09 26° SW 18:04:01 10° S daylight
17 Jun - 08:54:10 10° SSW 09:08:28 34° SE 09:28:44 10° E visible
17 Jun - 11:17:10 10° SW 11:36:40 54° SSE 12:01:15 10° E daylight
17 Jun - 13:44:23 10° W 14:07:34 55° SSW 14:30:01 10° ESE daylight
17 Jun - 16:15:16 10° W 16:36:52 36° SW 16:54:12 10° SSE daylight
17 Jun - 18:57:19 10° WSW 19:02:02 11° WSW 19:06:25 10° SW daylight
18 Jun - 07:45:01 10° S 07:55:54 22° SE 08:10:49 10° E visible
18 Jun - 10:05:15 10° SW 10:22:04 47° SSE 10:45:45 10° E visible
18 Jun - 12:30:42 10° WSW 12:52:08 58° S 13:16:21 10° ESE daylight
18 Jun - 14:59:40 10° W 15:22:38 46° SSW 15:42:52 10° SE daylight
18 Jun - 17:33:51 10° W 17:49:45 21° SW 18:02:53 10° S daylight
19 Jun - 06:40:14 10° SE 06:44:11 11° ESE 06:48:37 10° ESE visible
19 Jun - 08:54:17 10° SSW 09:08:23 37° SE 09:29:23 10° E visible
19 Jun - 11:17:51 10° WSW 11:36:51 56° S 12:01:42 10° ESE daylight
19 Jun - 13:45:07 10° W 14:07:40 53° SSW 14:30:20 10° SE daylight
19 Jun - 16:16:12 10° W 16:36:36 32° SW 16:53:47 10° SSE daylight
20 Jun - 07:44:34 10° S 07:55:42 26° SE 08:11:57 10° E visible
20 Jun - 10:05:49 10° SW 10:22:11 50° SSE 10:46:11 10° E visible
20 Jun - 12:31:27 10° WSW 12:52:20 57° S 13:16:43 10° ESE daylight
20 Jun - 15:00:27 10° W 15:22:32 42° SSW 15:42:48 10° SSE daylight
20 Jun - 17:36:06 10° W 17:49:18 17° SW 18:00:52 10° SSW daylight
21 Jun - 06:37:14 10° SSE 06:43:55 15° ESE 06:52:21 10° E visible
21 Jun - 08:54:39 10° SSW 09:08:25 41° SSE 09:29:52 10° E visible
21 Jun - 11:18:36 10° WSW 11:37:06 56° S 12:02:04 10° ESE daylight
21 Jun - 13:45:55 10° W 14:07:44 50° SSW 14:30:28 10° SE daylight
21 Jun - 16:17:25 10° W 16:36:16 27° SW 16:52:56 10° S daylight
22 Jun - 07:44:32 10° SSW 07:55:38 30° SE 08:12:45 10° E visible
22 Jun - 10:06:31 10° SW 10:22:25 52° SSE 10:46:31 10° E visible
22 Jun - 12:32:17 10° W 12:52:31 55° S 13:16:56 10° ESE daylight
22 Jun - 15:01:24 10° W 15:22:22 37° SW 15:42:26 10° SSE daylight
22 Jun - 17:39:51 10° W 17:48:48 13° WSW 17:57:09 10° SW daylight
